Location: Goettingen
(51.5300°N, 9.9433°E)
Time: 17:41:50
(UTC+02:00)

ISS - Pass Details

Date: 28 May 2020
Orbit: 417 x 420 km, 51.6° (Epoch: 26 May)

Event Time Altitude Azimuth Distance (km) Brightness Sun altitude
Rises 23:56:54 0° 282° (WNW) 2,368 0.5 -14.9°
Reaches altitude 10° 23:59:26 10° 262° (W) 1,501 -0.8 -15.0°
Enters shadow 00:01:47 18° 218° (SW) 1,102 -2.0 -15.1°
